QPF
0.01 0.01 0.01 0.01 0.01 0.01 0.01 0.01 0.01 0.00 0.00 0.01 0.01 0.01 0.01 0.00 0.00 0.01 0.01 0.00 0.00 0.00 0.00 0.00 0.01 0.01 0.01 0.01 0.01 0.01 0.01 0.02 0.03 0.02 0.03 0.03 0.05 0.05 0.05 0.06 0.05 0.03 0.02 0.01
0.01 0.01 0.01 0.01 0.01 0.00 0.00 0.00 0.00 0.00 0.00 0.01 0.01 0.01 0.01 0.01 0.01 0.01 0.01 0.01 0.00 0.00 0.00 0.00 0.01 0.01 0.01 0.01 0.00 0.01 0.01 0.02 0.03 0.03 0.03 0.03 0.04 0.05 0.04 0.04 0.03 0.03 0.02 0.02
0.01 0.01 0.01 0.01 0.01 0.01 0.01 0.01 0.00 0.00 0.00 0.01 0.01 0.01 0.01 0.01 0.01 0.00 0.00 0.00 0.00 0.00 0.00 0.00 0.00 0.00 0.00 0.00 0.00 0.00 0.01 0.01 0.02 0.02 0.02 0.03 0.03 0.04 0.04 0.03 0.03 0.03 0.03 0.04
0.01 0.00 0.00 0.01 0.01 0.01 0.01 0.00 0.00 0.00 0.00 0.01 0.01 0.01 0.01 0.01 0.01 0.01 0.00 0.00 0.00 0.00 0.00 0.00 0.00 0.00 0.00 0.00 0.00 0.00 0.00 0.00 0.01 0.01 0.01 0.02 0.03 0.04 0.05 0.06 0.05 0.04 0.03 0.03
0.01 0.00 0.00 0.00 0.00 0.00 0.00 0.00 0.00 0.00 0.01 0.01 0.01 0.02 0.01 0.01 0.01 0.01 0.01 0.01 0.00 0.00 0.00 0.00 0.00 0.00 0.00 0.00 0.00 0.00 0.00 0.00 0.01 0.01 0.01 0.01 0.02 0.03 0.04 0.05 0.06 0.05 0.04 0.03
0.00 0.00 0.00 0.00 0.00 0.00 0.00 0.00 0.00 0.00 0.01 0.02 0.01 0.01 0.01 0.01 0.01 0.02 0.01 0.01 0.01 0.00 0.00 0.00 0.00 0.00 0.00 0.00 0.00 0.00 0.00 0.00 0.01 0.01 0.01 0.02 0.02 0.02 0.03 0.04 0.05 0.04 0.03 0.03
0.01 0.00 0.00 0.00 0.00 0.00 0.00 0.01 0.02 0.02 0.02 0.02 0.01 0.01 0.01 0.01 0.01 0.01 0.01 0.01 0.01 0.01 0.01 0.00 0.00 0.00 0.00 0.00 0.00 0.00 0.00 0.00 0.00 0.01 0.01 0.01 0.02 0.02 0.02 0.02 0.03 0.03 0.04 0.03
0.01 0.01 0.00 0.00 0.00 0.01 0.00 0.01 0.01 0.01 0.01 0.01 0.01 0.01 0.01 0.01 0.01 0.01 0.01 0.01 0.01 0.01 0.01 0.01 0.00 0.00 0.00 0.00 0.00 0.00 0.00 0.00 0.01 0.01 0.01 0.01 0.02 0.02 0.01 0.01 0.01 0.02 0.03 0.03
0.01 0.00 0.00 0.00 0.00 0.01 0.01 0.01 0.01 0.01 0.01 0.01 0.01 0.01 0.01 0.00 0.00 0.00 0.00 0.01 0.01 0.01 0.01 0.01 0.00 0.00 0.00 0.00 0.00 0.00 0.01 0.01 0.01 0.01 0.01 0.01 0.01 0.02 0.02 0.02 0.01 0.02 0.02 0.03
0.01 0.01 0.00 0.00 0.00 0.01 0.01 0.01 0.01 0.02 0.02 0.01 0.01 0.00 0.00 0.00 0.00 0.00 0.00 0.00 0.00 0.01 0.01 0.01 0.00 0.00 0.00 0.00 0.00 0.00 0.01 0.01 0.01 0.01 0.01 0.01 0.01 0.01 0.01 0.02 0.02 0.02 0.02 0.03
0.01 0.01 0.00 0.01 0.01 0.01 0.01 0.01 0.02 0.02 0.02 0.02 0.01 0.01 0.01 0.01 0.00 0.00 0.00 0.00 0.00 0.01 0.02 0.01 0.01 0.01 0.00 0.00 0.00 0.00 0.00 0.01 0.01 0.01 0.00 0.00 0.01 0.01 0.01 0.01 0.01 0.02 0.03 0.03
0.01 0.02 0.01 0.00 0.00 0.01 0.01 0.01 0.01 0.02 0.02 0.02 0.01 0.01 0.01 0.00 0.00 0.00 0.00 0.01 0.01 0.01 0.02 0.02 0.02 0.01 0.01 0.00 0.00 0.00 0.00 0.01 0.01 0.01 0.01 0.01 0.01 0.01 0.01 0.01 0.01 0.02 0.04 0.05
0.02 0.03 0.02 0.01 0.01 0.01 0.01 0.01 0.01 0.02 0.02 0.02 0.02 0.01 0.00 0.00 0.00 0.00 0.00 0.01 0.01 0.01 0.01 0.02 0.02 0.01 0.01 0.01 0.01 0.01 0.01 0.01 0.01 0.01 0.01 0.02 0.02 0.02 0.01 0.01 0.02 0.03 0.04 0.06
0.02 0.04 0.03 0.01 0.01 0.01 0.01 0.01 0.01 0.02 0.03 0.02 0.01 0.01 0.00 0.00 0.00 0.00 0.00 0.00 0.01 0.01 0.01 0.02 0.01 0.01 0.01 0.01 0.01 0.01 0.01 0.01 0.01 0.01 0.01 0.02 0.02 0.03 0.03 0.03 0.03 0.03 0.04 0.05
0.03 0.04 0.02 0.01 0.01 0.01 0.01 0.01 0.01 0.01 0.02 0.03 0.02 0.02 0.01 0.01 0.01 0.01 0.00 0.00 0.01 0.01 0.01 0.02 0.02 0.01 0.01 0.01 0.02 0.02 0.02 0.01 0.01 0.01 0.01 0.01 0.01 0.02 0.02 0.03 0.03 0.04 0.04 0.05
0.03 0.04 0.02 0.01 0.00 0.01 0.01 0.01 0.01 0.01 0.01 0.01 0.01 0.02 0.01 0.01 0.00 0.01 0.01 0.01 0.01 0.01 0.01 0.01 0.02 0.02 0.01 0.01 0.02 0.02 0.02 0.02 0.01 0.01 0.01 0.01 0.01 0.02 0.02 0.02 0.03 0.04 0.05 0.06
0.04 0.04 0.04 0.02 0.01 0.02 0.02 0.01 0.01 0.01 0.01 0.01 0.01 0.01 0.01 0.01 0.01 0.01 0.01 0.01 0.01 0.01 0.01 0.01 0.02 0.02 0.02 0.02 0.02 0.02 0.02 0.02 0.02 0.02 0.02 0.01 0.01 0.02 0.02 0.02 0.03 0.03 0.04 0.05
0.03 0.04 0.05 0.04 0.03 0.04 0.01 0.00 0.00 0.01 0.01 0.01 0.02 0.01 0.01 0.01 0.01 0.01 0.01 0.01 0.00 0.01 0.01 0.01 0.01 0.02 0.02 0.03 0.03 0.02 0.02 0.02 0.02 0.02 0.01 0.01 0.01 0.01 0.02 0.02 0.03 0.03 0.03 0.03
0.02 0.03 0.05 0.05 0.04 0.02 0.00 0.00 0.00 0.01 0.01 0.01 0.01 0.01 0.01 0.01 0.01 0.00 0.00 0.00 0.01 0.01 0.01 0.01 0.01 0.02 0.03 0.03 0.03 0.02 0.02 0.02 0.02 0.02 0.01 0.01 0.01 0.01 0.01 0.01 0.01 0.02 0.02 0.02
0.01 0.03 0.06 0.07 0.05 0.02 0.00 0.00 0.00 0.01 0.01 0.01 0.01 0.01 0.01 0.00 0.01 0.01 0.00 0.01 0.01 0.01 0.01 0.01 0.02 0.02 0.03 0.03 0.03 0.03 0.02 0.02 0.02 0.02 0.02 0.01 0.01 0.01 0.01 0.01 0.01 0.01 0.02 0.02
0.01 0.03 0.05 0.04 0.04 0.02 0.01 0.00 0.00 0.01 0.01 0.00 0.00 0.01 0.01 0.00 0.00 0.00 0.00 0.01 0.01 0.01 0.01 0.01 0.02 0.02 0.02 0.03 0.03 0.02 0.02 0.02 0.03 0.03 0.02 0.01 0.01 0.01 0.01 0.01 0.01 0.01 0.01 0.01
0.01 0.02 0.02 0.02 0.03 0.02 0.01 0.01 0.01 0.01 0.01 0.00 0.00 0.00 0.00 0.00 0.00 0.00 0.00 0.00 0.01 0.01 0.01 0.01 0.01 0.01 0.02 0.02 0.03 0.02 0.02 0.02 0.02 0.02 0.02 0.02 0.01 0.01 0.01 0.01 0.01 0.02 0.01 0.01
0.01 0.01 0.01 0.01 0.01 0.01 0.01 0.01 0.01 0.01 0.00 0.00 0.00 0.00 0.00 0.00 0.00 0.00 0.00 0.00 0.01 0.01 0.01 0.01 0.01 0.01 0.01 0.02 0.02 0.02 0.02 0.02 0.01 0.01 0.01 0.01 0.01 0.02 0.02 0.02 0.02 0.02 0.02 0.02
0.01 0.01 0.02 0.01 0.01 0.01 0.01 0.01 0.01 0.01 0.00 0.00 0.00 0.00 0.00 0.00 0.00 0.00 0.00 0.00 0.01 0.01 0.01 0.01 0.01 0.01 0.01 0.01 0.01 0.02 0.02 0.02 0.01 0.01 0.01 0.01 0.01 0.02 0.02 0.02 0.02 0.02 0.03 0.03
0.01 0.01 0.01 0.01 0.01 0.00 0.00 0.00 0.00 0.00 0.00 0.00 0.00 0.00 0.00 0.00 0.00 0.00 0.00 0.00 0.00 0.00 0.00 0.00 0.01 0.01 0.01 0.01 0.01 0.01 0.01 0.01 0.01 0.01 0.01 0.01 0.01 0.01 0.01 0.02 0.02 0.03 0.03 0.04
0.01 0.01 0.01 0.01 0.00 0.01 0.00 0.00 0.00 0.00 0.00 0.00 0.00 0.00 0.00 0.00 0.00 0.00 0.00 0.00 0.00 0.00 0.01 0.01 0.01 0.01 0.01 0.01 0.01 0.01 0.01 0.01 0.01 0.01 0.01 0.01 0.01 0.01 0.01 0.01 0.02 0.02 0.02 0.02
MSLP
1016.73 1016.79 1016.82 1016.85 1016.87 1016.90 1016.93 1016.91 1016.85 1016.70 1016.47 1016.16 1015.81 1015.46 1015.16 1014.96 1014.87 1014.93 1015.12 1015.41 1015.78 1016.19 1016.62 1017.06 1017.51 1017.98 1018.49 1019.06 1019.68 1020.37 1021.08 1021.79 1022.46 1023.07 1023.58 1024.00 1024.33 1024.58 1024.78 1024.94 1025.09 1025.22 1025.33 1025.40
1016.54 1016.53 1016.49 1016.44 1016.41 1016.41 1016.43 1016.44 1016.41 1016.30 1016.08 1015.77 1015.39 1014.97 1014.58 1014.27 1014.09 1014.07 1014.21 1014.50 1014.90 1015.38 1015.89 1016.41 1016.95 1017.49 1018.06 1018.67 1019.32 1020.03 1020.77 1021.51 1022.23 1022.88 1023.45 1023.93 1024.31 1024.60 1024.84 1025.03 1025.20 1025.35 1025.48 1025.57
1016.36 1016.30 1016.21 1016.12 1016.06 1016.06 1016.10 1016.14 1016.14 1016.04 1015.81 1015.45 1014.97 1014.43 1013.90 1013.44 1013.14 1013.02 1013.11 1013.39 1013.84 1014.39 1015.01 1015.65 1016.28 1016.91 1017.55 1018.20 1018.89 1019.61 1020.37 1021.14 1021.90 1022.61 1023.24 1023.78 1024.22 1024.57 1024.85 1025.08 1025.28 1025.45 1025.59 1025.69
1016.28 1016.18 1016.07 1015.97 1015.93 1015.96 1016.04 1016.12 1016.14 1016.03 1015.75 1015.29 1014.67 1013.95 1013.22 1012.57 1012.10 1011.86 1011.88 1012.15 1012.64 1013.28 1014.02 1014.78 1015.53 1016.25 1016.95 1017.65 1018.36 1019.10 1019.87 1020.67 1021.46 1022.22 1022.92 1023.53 1024.05 1024.47 1024.81 1025.08 1025.31 1025.50 1025.64 1025.75
1016.29 1016.18 1016.07 1016.00 1016.02 1016.11 1016.26 1016.39 1016.43 1016.29 1015.93 1015.33 1014.53 1013.59 1012.62 1011.75 1011.08 1010.69 1010.63 1010.89 1011.42 1012.14 1012.99 1013.87 1014.73 1015.55 1016.32 1017.05 1017.78 1018.52 1019.30 1020.11 1020.93 1021.74 1022.50 1023.19 1023.79 1024.29 1024.70 1025.03 1025.29 1025.50 1025.66 1025.76
1016.34 1016.23 1016.15 1016.15 1016.25 1016.44 1016.68 1016.88 1016.93 1016.76 1016.31 1015.55 1014.54 1013.37 1012.15 1011.04 1010.17 1009.63 1009.48 1009.71 1010.27 1011.07 1012.02 1013.01 1013.98 1014.88 1015.70 1016.46 1017.19 1017.93 1018.71 1019.52 1020.37 1021.22 1022.04 1022.81 1023.49 1024.08 1024.56 1024.94 1025.25 1025.48 1025.65 1025.75
1016.33 1016.24 1016.21 1016.30 1016.50 1016.81 1017.15 1017.42 1017.51 1017.31 1016.76 1015.86 1014.65 1013.25 1011.80 1010.48 1009.42 1008.75 1008.51 1008.72 1009.30 1010.16 1011.20 1012.28 1013.33 1014.30 1015.16 1015.94 1016.67 1017.40 1018.16 1018.97 1019.83 1020.72 1021.60 1022.43 1023.19 1023.85 1024.40 1024.85 1025.20 1025.46 1025.64 1025.74
1016.17 1016.10 1016.13 1016.31 1016.64 1017.07 1017.52 1017.86 1017.98 1017.76 1017.13 1016.11 1014.75 1013.17 1011.54 1010.05 1008.85 1008.08 1007.79 1007.97 1008.58 1009.49 1010.59 1011.74 1012.85 1013.86 1014.75 1015.54 1016.26 1016.98 1017.72 1018.52 1019.39 1020.29 1021.21 1022.09 1022.91 1023.64 1024.25 1024.76 1025.15 1025.44 1025.64 1025.75
1015.80 1015.76 1015.86 1016.13 1016.57 1017.11 1017.65 1018.06 1018.20 1017.97 1017.30 1016.20 1014.73 1013.05 1011.31 1009.72 1008.44 1007.62 1007.30 1007.49 1008.11 1009.06 1010.20 1011.40 1012.55 1013.58 1014.48 1015.27 1015.98 1016.68 1017.41 1018.20 1019.06 1019.97 1020.91 1021.82 1022.68 1023.45 1024.11 1024.66 1025.08 1025.40 1025.62 1025.75
1015.24 1015.24 1015.40 1015.75 1016.28 1016.89 1017.50 1017.95 1018.10 1017.86 1017.16 1016.02 1014.52 1012.80 1011.03 1009.42 1008.15 1007.33 1007.02 1007.23 1007.87 1008.84 1010.00 1011.21 1012.37 1013.41 1014.31 1015.10 1015.80 1016.49 1017.20 1017.98 1018.83 1019.74 1020.68 1021.60 1022.48 1023.27 1023.95 1024.51 1024.97 1025.31 1025.56 1025.70
1014.59 1014.63 1014.85 1015.27 1015.84 1016.49 1017.11 1017.55 1017.68 1017.41 1016.70 1015.55 1014.06 1012.37 1010.66 1009.11 1007.90 1007.13 1006.88 1007.11 1007.77 1008.74 1009.88 1011.08 1012.23 1013.26 1014.15 1014.94 1015.64 1016.33 1017.04 1017.81 1018.65 1019.54 1020.47 1021.38 1022.24 1023.03 1023.71 1024.29 1024.75 1025.12 1025.38 1025.56
1013.99 1014.09 1014.37 1014.81 1015.40 1016.02 1016.59 1016.97 1017.03 1016.71 1015.96 1014.83 1013.38 1011.77 1010.16 1008.73 1007.63 1006.96 1006.76 1007.03 1007.69 1008.63 1009.74 1010.90 1012.00 1013.01 1013.89 1014.67 1015.38 1016.08 1016.81 1017.58 1018.42 1019.30 1020.20 1021.09 1021.93 1022.69 1023.36 1023.93 1024.40 1024.79 1025.08 1025.29
1013.56 1013.74 1014.06 1014.52 1015.06 1015.60 1016.06 1016.31 1016.25 1015.83 1015.04 1013.90 1012.52 1011.01 1009.54 1008.25 1007.29 1006.73 1006.60 1006.89 1007.53 1008.42 1009.46 1010.54 1011.59 1012.55 1013.42 1014.20 1014.94 1015.67 1016.42 1017.22 1018.06 1018.93 1019.82 1020.67 1021.48 1022.22 1022.86 1023.43 1023.91 1024.32 1024.64 1024.90
1013.39 1013.64 1013.99 1014.43 1014.88 1015.29 1015.57 1015.63 1015.40 1014.85 1013.98 1012.83 1011.51 1010.11 1008.79 1007.66 1006.84 1006.39 1006.32 1006.62 1007.21 1008.03 1008.97 1009.96 1010.92 1011.83 1012.67 1013.47 1014.24 1015.01 1015.81 1016.64 1017.51 1018.39 1019.27 1020.10 1020.89 1021.60 1022.24 1022.80 1023.30 1023.74 1024.11 1024.42
1013.44 1013.76 1014.13 1014.50 1014.83 1015.06 1015.12 1014.95 1014.51 1013.79 1012.82 1011.65 1010.38 1009.10 1007.92 1006.95 1006.28 1005.92 1005.90 1006.18 1006.71 1007.43 1008.25 1009.12 1009.99 1010.83 1011.65 1012.46 1013.27 1014.10 1014.96 1015.85 1016.76 1017.67 1018.55 1019.39 1020.16 1020.87 1021.51 1022.10 1022.63 1023.11 1023.55 1023.92
1013.63 1013.99 1014.33 1014.61 1014.79 1014.80 1014.61 1014.19 1013.52 1012.63 1011.55 1010.36 1009.14 1007.97 1006.94 1006.14 1005.59 1005.32 1005.34 1005.59 1006.05 1006.65 1007.34 1008.08 1008.85 1009.63 1010.42 1011.24 1012.10 1012.99 1013.92 1014.88 1015.84 1016.79 1017.70 1018.55 1019.34 1020.07 1020.74 1021.36 1021.95 1022.49 1023.00 1023.45
1013.81 1014.15 1014.43 1014.58 1014.57 1014.35 1013.91 1013.24 1012.36 1011.31 1010.15 1008.96 1007.81 1006.76 1005.88 1005.23 1004.81 1004.64 1004.68 1004.91 1005.28 1005.77 1006.33 1006.95 1007.61 1008.32 1009.09 1009.92 1010.81 1011.76 1012.77 1013.79 1014.82 1015.82 1016.77 1017.66 1018.49 1019.25 1019.97 1020.65 1021.30 1021.92 1022.50 1023.03
1013.82 1014.09 1014.26 1014.25 1014.04 1013.60 1012.92 1012.03 1010.98 1009.82 1008.62 1007.46 1006.39 1005.49 1004.78 1004.29 1004.01 1003.93 1004.01 1004.21 1004.52 1004.90 1005.34 1005.84 1006.41 1007.05 1007.79 1008.62 1009.54 1010.54 1011.60 1012.69 1013.77 1014.82 1015.82 1016.75 1017.63 1018.45 1019.23 1019.98 1020.70 1021.40 1022.06 1022.67
1013.61 1013.74 1013.75 1013.56 1013.15 1012.50 1011.63 1010.58 1009.41 1008.20 1007.01 1005.92 1004.99 1004.26 1003.73 1003.41 1003.28 1003.29 1003.41 1003.61 1003.86 1004.16 1004.50 1004.90 1005.38 1005.96 1006.65 1007.47 1008.40 1009.43 1010.52 1011.65 1012.77 1013.86 1014.90 1015.88 1016.80 1017.68 1018.52 1019.34 1020.14 1020.91 1021.64 1022.30
1013.19 1013.14 1012.96 1012.59 1012.00 1011.18 1010.17 1009.02 1007.81 1006.60 1005.48 1004.51 1003.74 1003.19 1002.85 1002.70 1002.71 1002.82 1002.99 1003.20 1003.41 1003.64 1003.90 1004.21 1004.61 1005.12 1005.77 1006.56 1007.47 1008.50 1009.60 1010.74 1011.87 1012.98 1014.04 1015.05 1016.01 1016.93 1017.83 1018.70 1019.56 1020.39 1021.17 1021.88
1012.69 1012.45 1012.08 1011.54 1010.80 1009.87 1008.79 1007.61 1006.40 1005.26 1004.25 1003.43 1002.83 1002.45 1002.29 1002.30 1002.43 1002.62 1002.84 1003.04 1003.23 1003.40 1003.59 1003.83 1004.15 1004.60 1005.19 1005.92 1006.80 1007.79 1008.86 1009.98 1011.10 1012.19 1013.25 1014.27 1015.25 1016.19 1017.12 1018.04 1018.93 1019.79 1020.61 1021.34
1012.29 1011.88 1011.37 1010.70 1009.88 1008.89 1007.79 1006.64 1005.50 1004.46 1003.58 1002.90 1002.45 1002.22 1002.19 1002.31 1002.52 1002.76 1003.00 1003.19 1003.34 1003.47 1003.59 1003.75 1004.00 1004.37 1004.89 1005.56 1006.37 1007.30 1008.31 1009.37 1010.45 1011.51 1012.54 1013.54 1014.51 1015.46 1016.39 1017.32 1018.22 1019.10 1019.92 1020.66
1012.21 1011.69 1011.08 1010.37 1009.52 1008.55 1007.49 1006.41 1005.37 1004.44 1003.67 1003.11 1002.76 1002.63 1002.66 1002.83 1003.05 1003.29 1003.50 1003.65 1003.75 1003.80 1003.85 1003.94 1004.12 1004.41 1004.84 1005.43 1006.15 1007.00 1007.93 1008.91 1009.92 1010.92 1011.90 1012.86 1013.81 1014.74 1015.65 1016.56 1017.46 1018.32 1019.12 1019.85
1012.57 1012.03 1011.43 1010.75 1009.95 1009.06 1008.10 1007.12 1006.19 1005.35 1004.67 1004.16 1003.85 1003.73 1003.75 1003.87 1004.04 1004.20 1004.33 1004.39 1004.40 1004.37 1004.34 1004.35 1004.44 1004.64 1004.98 1005.47 1006.10 1006.85 1007.68 1008.58 1009.50 1010.43 1011.35 1012.26 1013.16 1014.05 1014.94 1015.81 1016.67 1017.50 1018.27 1018.98
1013.45 1013.00 1012.50 1011.93 1011.26 1010.50 1009.67 1008.81 1007.97 1007.20 1006.55 1006.04 1005.69 1005.48 1005.40 1005.39 1005.42 1005.45 1005.44 1005.38 1005.27 1005.13 1005.00 1004.92 1004.92 1005.03 1005.28 1005.67 1006.19 1006.83 1007.56 1008.36 1009.19 1010.04 1010.89 1011.75 1012.59 1013.44 1014.28 1015.11 1015.92 1016.70 1017.43 1018.11
1014.81 1014.53 1014.22 1013.84 1013.36 1012.77 1012.09 1011.34 1010.58 1009.84 1009.17 1008.59 1008.12 1007.76 1007.50 1007.29 1007.12 1006.95 1006.76 1006.54 1006.29 1006.04 1005.80 1005.62 1005.52 1005.54 1005.69 1005.97 1006.39 1006.92 1007.55 1008.24 1008.98 1009.76 1010.54 1011.33 1012.12 1012.92 1013.70 1014.48 1015.24 1015.97 1016.66 1017.29
Thickness
5512 5506 5506 5510 5510 5513 5510 5507 5507 5511 5516 5512 5512 5519 5526 5524 5522 5523 5524 5525 5527 5528 5528 5528 5528 5528 5529 5531 5532 5534 5535 5537 5538 5539 5539 5540 5541 5541 5540 5540 5540 5540 5540 5539
5496 5497 5503 5502 5501 5499 5497 5496 5496 5501 5504 5502 5501 5506 5513 5514 5515 5516 5517 5517 5518 5518 5519 5519 5519 5519 5520 5521 5522 5524 5526 5527 5527 5529 5530 5531 5531 5531 5530 5529 5529 5530 5530 5529
5491 5494 5495 5494 5490 5490 5487 5484 5486 5489 5492 5493 5491 5500 5508 5511 5507 5508 5506 5507 5508 5509 5509 5509 5509 5509 5510 5511 5512 5515 5516 5517 5518 5519 5520 5520 5520 5520 5519 5519 5519 5519 5519 5519
5479 5482 5485 5484 5482 5481 5481 5481 5480 5480 5476 5476 5483 5482 5499 5500 5498 5499 5497 5495 5494 5495 5496 5496 5497 5498 5499 5500 5501 5503 5505 5507 5507 5508 5510 5510 5510 5510 5509 5509 5509 5509 5509 5509
5472 5474 5475 5475 5476 5473 5472 5474 5472 5472 5468 5463 5466 5465 5484 5485 5490 5491 5488 5486 5485 5485 5485 5486 5486 5487 5488 5489 5491 5492 5494 5496 5497 5498 5499 5499 5499 5498 5497 5497 5498 5499 5498 5498
5463 5465 5465 5466 5468 5468 5464 5464 5462 5456 5454 5450 5462 5456 5469 5469 5479 5481 5479 5476 5474 5473 5473 5474 5475 5476 5477 5478 5479 5481 5483 5484 5485 5486 5487 5487 5487 5486 5487 5487 5487 5488 5488 5489
5455 5458 5457 5458 5458 5458 5457 5450 5440 5436 5428 5440 5450 5447 5459 5465 5465 5467 5468 5464 5462 5461 5460 5460 5462 5463 5465 5466 5468 5469 5471 5472 5473 5474 5475 5475 5475 5476 5476 5477 5477 5477 5478 5479
5442 5446 5449 5448 5450 5446 5445 5444 5435 5431 5432 5438 5437 5439 5456 5457 5454 5453 5453 5452 5452 5450 5449 5450 5451 5452 5454 5456 5456 5457 5459 5461 5462 5463 5464 5464 5464 5465 5465 5466 5466 5468 5469 5470
5431 5437 5442 5442 5442 5441 5435 5431 5434 5422 5412 5416 5427 5432 5443 5448 5447 5445 5444 5442 5439 5438 5439 5439 5440 5441 5443 5444 5445 5446 5447 5449 5451 5452 5453 5453 5453 5454 5455 5455 5456 5457 5458 5459
5424 5421 5429 5430 5433 5430 5429 5424 5414 5409 5407 5414 5425 5430 5439 5444 5443 5438 5434 5432 5430 5428 5427 5428 5428 5429 5431 5433 5434 5435 5437 5439 5440 5441 5441 5442 5442 5443 5444 5444 5445 5446 5447 5449
5416 5411 5416 5419 5415 5415 5414 5411 5407 5400 5401 5409 5411 5430 5433 5433 5432 5428 5426 5424 5419 5417 5416 5416 5416 5417 5418 5421 5422 5424 5427 5428 5429 5429 5429 5430 5431 5432 5433 5434 5435 5436 5437 5439
5406 5398 5396 5406 5407 5406 5405 5403 5398 5395 5393 5396 5407 5421 5425 5419 5416 5415 5414 5413 5411 5409 5406 5405 5405 5405 5406 5408 5410 5411 5415 5417 5418 5418 5418 5419 5419 5421 5422 5423 5424 5425 5427 5428
5396 5388 5384 5398 5397 5391 5389 5389 5386 5384 5384 5384 5390 5412 5412 5407 5404 5402 5401 5400 5399 5398 5396 5395 5395 5394 5394 5395 5396 5398 5401 5403 5405 5406 5406 5407 5408 5409 5411 5412 5413 5415 5416 5417
5392 5378 5383 5393 5399 5385 5378 5378 5377 5376 5375 5377 5385 5400 5403 5398 5394 5392 5390 5389 5387 5386 5385 5385 5384 5384 5384 5383 5384 5385 5387 5390 5392 5393 5395 5396 5397 5398 5399 5401 5402 5403 5404 5406
5379 5370 5368 5375 5378 5373 5372 5375 5371 5369 5373 5374 5385 5385 5397 5389 5383 5382 5381 5380 5379 5378 5377 5377 5375 5373 5372 5372 5373 5374 5375 5377 5379 5380 5382 5383 5384 5386 5387 5388 5389 5391 5392 5394
5364 5360 5358 5361 5367 5364 5365 5371 5368 5366 5365 5364 5369 5378 5384 5377 5372 5371 5370 5370 5369 5368 5368 5366 5364 5363 5361 5361 5362 5362 5363 5364 5366 5367 5368 5369 5370 5372 5374 5375 5376 5378 5379 5381
5351 5346 5347 5351 5350 5354 5355 5372 5365 5360 5360 5360 5365 5378 5371 5367 5365 5362 5361 5360 5359 5359 5357 5354 5353 5351 5350 5349 5350 5349 5350 5351 5353 5354 5355 5355 5356 5358 5360 5362 5363 5365 5366 5368
5344 5338 5331 5328 5333 5347 5379 5369 5365 5360 5357 5352 5355 5359 5357 5357 5353 5350 5348 5347 5347 5346 5344 5342 5340 5338 5337 5336 5336 5337 5337 5339 5340 5341 5341 5342 5343 5345 5346 5348 5349 5351 5352 5354
5342 5335 5319 5316 5322 5335 5359 5356 5348 5347 5350 5344 5342 5344 5343 5341 5341 5343 5340 5335 5334 5332 5330 5328 5326 5324 5323 5323 5324 5324 5324 5324 5325 5327 5327 5328 5329 5331 5332 5334 5336 5337 5339 5342
5330 5326 5313 5305 5317 5325 5361 5348 5341 5338 5342 5340 5333 5332 5330 5327 5329 5337 5327 5321 5318 5317 5315 5313 5312 5310 5310 5310 5310 5311 5310 5310 5311 5312 5313 5314 5316 5318 5320 5322 5323 5325 5327 5329
5313 5305 5303 5300 5304 5322 5333 5329 5329 5330 5341 5329 5323 5320 5317 5314 5316 5313 5307 5304 5303 5302 5301 5299 5297 5296 5295 5296 5296 5296 5296 5296 5296 5298 5299 5301 5303 5305 5307 5309 5311 5313 5314 5316
5310 5300 5293 5288 5295 5319 5322 5314 5318 5323 5318 5312 5309 5306 5302 5299 5296 5294 5291 5289 5288 5287 5286 5285 5283 5282 5281 5280 5281 5282 5282 5283 5283 5285 5286 5288 5289 5291 5294 5296 5298 5299 5300 5302
5306 5310 5306 5307 5320 5317 5306 5306 5304 5301 5300 5298 5294 5292 5288 5284 5281 5279 5276 5274 5273 5272 5271 5270 5268 5268 5267 5266 5266 5267 5268 5268 5269 5271 5273 5274 5276 5278 5280 5282 5284 5285 5287 5289
5290 5287 5291 5291 5301 5298 5293 5289 5286 5284 5282 5281 5279 5277 5274 5271 5269 5265 5263 5262 5259 5258 5256 5254 5253 5253 5253 5252 5251 5252 5253 5253 5255 5257 5259 5261 5262 5265 5266 5267 5269 5271 5273 5275
5281 5273 5276 5279 5285 5284 5285 5277 5274 5271 5268 5265 5264 5262 5261 5259 5256 5253 5251 5249 5246 5244 5242 5240 5239 5239 5238 5238 5237 5237 5238 5240 5241 5243 5245 5246 5248 5251 5252 5253 5254 5257 5260 5262
5269 5266 5269 5282 5276 5271 5276 5269 5263 5259 5257 5254 5252 5250 5247 5245 5243 5240 5237 5234 5232 5230 5228 5226 5225 5224 5224 5224 5224 5224 5225 5226 5227 5229 5231 5232 5234 5236 5237 5239 5241 5243 5246 5249